Location: Hannover
(52.3723°N, 9.7339°E)
Time: 08:23:17
(UTC+02:00)

ISS - Pass Details

Date: 22 March 2019
Orbit: 408 x 410 km, 51.6° (Epoch: 22 April)

Event Time Altitude Azimuth Distance (km) Brightness Sun altitude
Rises 19:32:37 0° 196° (SSW) 2,326 0.1 -9.2°
Reaches altitude 10° 19:35:42 10° 164° (SSE) 1,469 -1.3 -9.6°
Maximum altitude 19:37:05 12° 139° (SE) 1,346 -1.7 -9.9°
Enters shadow 19:37:27 12° 132° (SE) 1,355 -1.7 -9.9°
